Home   Weather   Kemerovo   Past weeks

Flag for Russia Past Weather in Kemerovo, Russia — Yesterday and Last 2 Weeks

Now
0 °F

Sunny.


Feels Like: -15 °F
Forecast: 5 / 8 °F
Wind: 8 mph from Southeast

Location: Kemerovo

Current Time: Dec 10, 2016 at 4:16:10 pm

Latest Report: Dec 10, 2016 at 3:30 pm


Visibility: 10 mi

Pressure: 30.09 "Hg

Humidity: 71%

Dew Point: -8 °F

Location of KemerovoLocation

Past Weather in Kemerovo — Graph

°F

Kemerovo Temperature Yesterday

Maximum temperature yesterday: 28 °F (at 5:00 pm)
Minimum temperature yesterday: 16 °F (at 7:30 am)
Average temperature yesterday: 22 °F

High & Low Weather Summary for the Past Weeks

 TemperatureHumidityPressure
High34 °F (Dec 5, 3:30 am)100% (Dec 2, 4:00 am)30.51 "Hg (Dec 2, 4:00 am)
Low-9 °F (Dec 3, 6:00 am)52% (Dec 4, 3:30 pm)29.56 "Hg (Dec 9, 6:00 pm)
Average17 °F79%30.04 "Hg
* Reported Nov 25 3:00 pm — Dec 10 3:00 pm, Kemerovo, Weather by CustomWeather, © 2016

Note: Actual official high and low records may vary slightly from our data, if they occured in-between our weather recording intervals... More about our weather records

Advertising

Kemerovo Weather History for the Previous 24 Hours

Scroll right to see more
 ConditionsComfort  
Time TempWeatherWind HumidityBarometerVisibility
3:00 pm
Sat, Dec 10
0 °FSunny.8 mph71%30.09 "Hg10 mi
2:30 pm0 °FSunny.8 mph71%30.09 "Hg10 mi
2:00 pm0 °FSunny.8 mph65%30.09 "Hg10 mi
1:30 pm0 °FSunny.8 mph65%30.09 "Hg10 mi
1:00 pm-2 °FSunny.8 mph71%30.12 "Hg10 mi
12:30 pm-2 °FSunny.8 mph71%30.12 "Hg10 mi
12:00 pm-2 °FSunny.10 mph71%30.12 "Hg10 mi
11:30 am-2 °FScattered clouds.13 mph71%30.12 "HgN/A
11:00 am-2 °FScattered clouds.8 mph71%30.09 "HgN/A
10:30 am-2 °FPassing clouds.10 mph71%30.09 "HgN/A
10:00 am-2 °FPassing clouds.15 mph71%30.07 "HgN/A
9:30 am-2 °FLow level haze.15 mph65%30.07 "HgN/A
9:00 am-2 °FLow level haze.17 mph71%30.04 "Hg6 mi
8:30 am0 °FPassing clouds.22 mph65%30.01 "Hg5 mi
8:00 am0 °FPassing clouds.20 mph65%30.01 "HgN/A
7:30 am0 °FPassing clouds.22 mph71%29.98 "Hg6 mi
7:00 am0 °FPassing clouds.26 mph71%29.98 "Hg2 mi
6:30 am1 °FPassing clouds.26 mph71%29.95 "Hg4 mi
6:00 am3 °FFrigid.29 mph72%29.92 "Hg1 mi
5:30 am5 °FSnow flurries. Passing clouds.17 mph72%29.89 "Hg6 mi
5:00 am5 °FSnow flurries. Passing clouds.13 mph72%29.86 "HgN/A
4:30 am5 °FSnow flurries. Passing clouds.17 mph72%29.86 "Hg5 mi
4:00 am5 °FSnow flurries. Passing clouds.15 mph72%29.83 "HgN/A
3:30 am7 °FPassing clouds.29 mph72%29.80 "Hg1 mi
3:00 am9 °FFrigid.31 mph78%29.77 "Hg1 mi
2:30 am10 °FCold.36 mph79%29.74 "Hg1 mi
2:00 am12 °FSnow flurries. Passing clouds.26 mph79%29.71 "Hg1 mi
1:30 am14 °FCold.31 mph79%29.68 "Hg1 mi
1:00 am16 °FSnow showers. Passing clouds.26 mph86%29.65 "Hg1 mi
12:30 am18 °FCold.31 mph79%29.62 "Hg1 mi
12:00 am19 °FCold.29 mph73%29.62 "Hg1 mi
11:30 pm
Fri, Dec 9
23 °FPassing clouds.31 mph68%29.59 "Hg2 mi
11:00 pm25 °FPassing clouds.17 mph69%29.56 "HgN/A
10:30 pm25 °FPassing clouds.13 mph74%29.56 "HgN/A
10:00 pm27 °FSnow flurries. Passing clouds.15 mph74%29.56 "HgN/A
9:30 pm27 °FSnow flurries. Passing clouds.15 mph80%29.56 "HgN/A
9:00 pm27 °FSnow flurries. Passing clouds.13 mph86%29.56 "Hg6 mi
8:30 pm27 °FPassing clouds.13 mph86%29.56 "HgN/A
8:00 pm27 °FSnow flurries. Passing clouds.15 mph86%29.56 "Hg6 mi
7:30 pm27 °FPassing clouds.15 mph86%29.56 "HgN/A
7:00 pm27 °FPassing clouds.13 mph86%29.59 "HgN/A
6:30 pm28 °FPassing clouds.15 mph80%29.56 "HgN/A
6:00 pm28 °FLight snow. Overcast.17 mph86%29.56 "Hg6 mi
5:30 pm28 °FLight snow. More clouds than sun.15 mph93%29.59 "HgN/A
5:00 pm28 °FLight snow. More clouds than sun.17 mph93%29.59 "Hg3 mi
4:30 pm27 °FSnow. Low clouds.13 mph93%29.59 "Hg1 mi
4:00 pm25 °FSnow. Low clouds.13 mph93%29.62 "Hg1 mi
Weather by CustomWeather, © 2016

See weather overviewHow to use our weather pages